User: anonymous   Login
Location: Unspecified
(0.0000°N, 0.0000°E)
Time: 02:59:38
(UTC+00:00)
Language:

GGSE 1 - Orbit

View from above orbital plane
View from above orbital plane
View from above satellite
View from above satellite

Ground track
Ground track

The orbit data is extracted from the following two-line orbital elements,

1   728U 64001B   18171.51625392 -.00000017 +00000-0 +26125-4 0  9998
2   728 069.9075 004.7113 0012285 155.1505 205.0194 13.97115019771947
Epoch (UTC): 20 June 2018 12:23:24
Eccentricity: 0.0012285
inclination: 69.9075°
perigee height: 895 km
apogee height: 913 km
right ascension of ascending node: 4.7113°
argument of perigee: 155.1505°
revolutions per day: 13.97115019
mean anomaly at epoch: 205.0194°
orbit number at epoch: 77194

The dashed part of the orbit path shows where the satellite is in the earth's shadow,  

DLR